Globalstar M008

operational
NORAD ID: 25309 Int'l Des: 1998-023 Owner: GLOBT Country: US Constellation: globalstar
LEOCIRCULAR

About Globalstar M008

Description loading...

Live Position

Loading 3D Globe...

Upcoming Passes

Altitude History

Altitude vs Time

uPlot chart will show altitude changes over time

Two-Line Element Set

1 25309U 98023D 26061.58050514 -.00000083 00000-0 10008-3 0 9998
2 25309 51.9961 168.8968 0002405 16.1271 357.5033 12.36081210269802
Epoch: Mar 2, 2026 • Age: 32 hours

Current Status

Altitude 1527.1 km
Velocity 7.11 km/s
Sub-Earth Point 46.83°N, 53.68°W
Launch Date Apr 24, 1998
Age 27.8 years
Type communications

Technical Details

Classification Payload
Mass 450.00 kg
Dry Mass 380.00 kg
Total Mass 450.00 kg
Length 1.50 m
Diameter 0.60 m
Span 12.00 m
Shape Box + 2 Pan
Manufacturer LOR
Bus Type LS-400
Phase Status In Orbit
Owner/State GLOBT/US

Large Constellations

Loading constellations...